Location: Stockholm
(59.3330°N, 18.0500°E)
Time: 10:33:25
(UTC+01:00)

FENGYUN 1C DEB - Pass Details

Date: 08 December 2023
Orbit: 841 x 915 km, 98.8° (Epoch: 27 February)

Event Time Altitude Azimuth Distance (km) Brightness Sun altitude
Exits shadow 17:11:12 12° 25° (NNE) 2,355 ? -15.9°
Drops below altitude 10° 17:12:49 10° 7° (N) 2,480 ? -16.1°
Sets 17:16:54 0° 337° (NNW) 3,428 ? -16.6°
